Regional Weather Roundup
Issued by NWS

Home | Current Version | Previous Version | Graphics & Text | Print | Product List | Glossary On
Versions: 1 2 3 4 5 6 7 8 9 10 11 12 13 14 15 16 17 18 19 20 21 22 23 24 25 26 27 28 29 30 31 32 33 34 35 36 37 38 39 40 41 42 43 44 45 46 47 48 49 50
000
ASUS45 KPSR 230900
RWRAZ

ARIZONA HOURLY REGIONAL WEATHER ROUNDUP
NATIONAL WEATHER SERVICE PHOENIX AZ
200 AM MST SAT MAY 23 2015

NOTE: FAIR INDICATES FEW OR NO CLOUDS BELOW 12,000 FEET WITH NO
SIGNIFICANT WEATHER AND/OR OBSTRUCTIONS TO VISIBILITY.

AZZ001>003-036-231000-
NORTHWEST ARIZONA

CITY           SKY/WX    TMP DP  RH WIND       PRES   REMARKS
KINGMAN        PTCLDY    47  39  74 SE10      29.97F
$$

AZZ004>008-015-016-018-231000-
NORTH CENTRAL ARIZONA

CITY           SKY/WX    TMP DP  RH WIND       PRES   REMARKS
GRAND CANYON   MOCLDY    31  30  96 CALM      30.04S
WILLIAMS       CLOUDY    39  34  81 SW5       30.11S
PRESCOTT       CLOUDY    47  34  60 S7        30.03S
FLAGSTAFF      NOT AVBL
PAYSON         CLEAR     45  32  61 CALM      30.04F
PAGE           MOCLDY    50  39  66 N5        29.97S
$$

AZZ009>014-017-231000-
NORTHEAST ARIZONA

CITY           SKY/WX    TMP DP  RH WIND       PRES   REMARKS
WINSLOW        NOT AVBL
SAINT JOHNS    CLEAR     42  32  67 CALM      30.03F
WINDOW ROCK    CLEAR     36  25  64 CALM      30.06F
$$

AZZ023-231000-
GREATER PHOENIX AREA

CITY           SKY/WX    TMP DP  RH WIND       PRES   REMARKS
PHOENIX        CLEAR     67  39  35 SW7       29.92S
LUKE AFB       CLEAR     65  41  40 S7        29.91F
DEER VALLEY    CLEAR     63  38  39 E3        29.93S
SCOTTSDALE     CLEAR     66  38  35 CALM      29.95S
$$

AZZ027-028-231000-
SOUTHWEST MARICOPA COUNTY AND PINAL COUNTY

CITY           SKY/WX    TMP DP  RH WIND       PRES   REMARKS
CASA GRANDE    CLEAR     61  37  41 CALM      29.94S
GILA BEND      FAIR      63  42  45 SW13      29.94S
$$

AZZ503-504-507>509-231000-
SOUTHEAST ARIZONA

CITY           SKY/WX    TMP DP  RH WIND       PRES   REMARKS
TUCSON         CLEAR     59  32  36 W7        30.00S
DAVIS-MONTHAN  CLEAR     60  32  35 SW2       29.98S
NOGALES        CLEAR     52  32  46 CALM      30.02F
SIERRA VISTA   CLEAR     54  36  50 NW7       30.05F
SAFFORD        CLEAR     60  38  43 W13       29.95S
$$

AZZ020-021-025-026-031-231000-
SOUTHWEST ARIZONA

CITY           SKY/WX    TMP DP  RH WIND       PRES   REMARKS
YUMA           CLEAR     62  45  53 SW5       29.95S
$$

CAZ031-033-041-043-047-048-061-231000-
SOUTHERN CALIFORNIA

CITY           SKY/WX    TMP DP  RH WIND       PRES   REMARKS
DOWNTOWN L.A.  PTCLDY    60  51  72 CALM      30.05S
L.A. AIRPORT   PTCLDY    58  54  86 W10       30.06S
SAN DIEGO      LGT RAIN  62  55  77 CALM      30.09F
BURBANK        PTCLDY    60  50  69 SE3       30.04F
ONTARIO        CLOUDY    57  50  77 SW5       30.06R
RIVERSIDE      CLOUDY    58  52  80 CALM      30.06S
PALM SPRINGS   CLEAR     64  45  49 CALM      29.95S
EL CENTRO NAS  CLEAR     64  43  46 W16       29.96F
IMPERIAL       CLEAR     62  44  51 W12       29.94S
BLYTHE         CLEAR     62  48  60 S9        29.91S
$$

NVZ020-UTZ003-231000-
SOUTHERN NEVADA-UTAH

CITY           SKY/WX    TMP DP  RH WIND       PRES   REMARKS
LAS VEGAS      NOT AVBL
SALT LAKE CITY LGT RAIN  53  47  79 E6        29.92R
$$

NMZ009-TXZ055-231000-
NEW MEXICO-WEST TEXAS

CITY           SKY/WX    TMP DP  RH WIND       PRES   REMARKS
ALBUQUERQUE    MOCLDY    57  30  35 W5        30.00R
EL PASO        CLOUDY    72  21  14 NW8       29.96R
$$


........................KEY........................
SKY/WX - SKY CONDITION/WEATHER
TMP    - TEMPERATURE IN FAHRENHEIT
DP     - DEW POINT IN FAHRENHEIT
RH     - RELATIVE HUMIDITY IN PERCENT
WIND   - DIRECTION AND SPEED IN MILES PER HOUR (MPH)
VRB    - VARIABLE WIND DIRECTION
PRES   - MEAN SEA LEVEL PRESSURE IN INCHES OF MERCURY
         F - FALLING PRESSURE   R - RISING PRESSURE
         S - STEADY PRESSURE
VSB    - VISIBILITY IN MILES
HX     - HEAT INDEX IN FAHRENHEIT
WCI    - WIND CHILL INDEX IN FAHRENHEIT
TC     - TEMPERATURE IN CELSIUS WHICH IS ALSO KNOWN AS
         TEMPERATURE IN CENTIGRADE
AFB    - AIR FORCE BASE
         LUKE AFB IS LUKE AIR FORCE BASE
         DAVIS-MONTHAN IS DAVIS-MONTHAN AIR FORCE BASE
NAS    - NAVAL AIR STATION
         EL CENTRO NAS IS EL CENTRO NAVAL AIR STATION
N/A    - NOT AVAILABLE



USA.gov is the U.S. government's official web portal to all federal, state and local government web resources and services.